Regional Weather Roundup
Issued by NWS

Home | Current Version | Previous Version | Graphics & Text | Print | Product List | Glossary On
Versions: 1 2 3 4 5 6 7 8 9 10 11 12 13 14 15 16 17 18 19 20 21 22 23 24 25 26 27 28 29 30 31 32 33 34 35 36 37 38 39 40 41 42 43 44 45 46 47 48 49 50
000
ASUS43 KIND 131659
RWRIN

WEATHER ROUNDUP FOR INDIANA
NATIONAL WEATHER SERVICE INDIANAPOLIS IN
100 PM EDT SUN JUL 13 2014

NOTE: "FAIR" INDICATES FEW OR NO CLOUDS BELOW 12,000 FEET WITH NO
SIGNIFICANT WEATHER AND/OR OBSTRUCTIONS TO VISIBILITY.

* - STATION DOES NOT REPORT WEATHER SUCH AS PRECIPITATION OR FOG.

+ - STATION NOT QUALITY CONTROLLED BY THE NATIONAL WEATHER SERVICE.
    USE DATA WITH CAUTION...ESPECIALLY DEWPOINT AND RELATIVE
    HUMIDITY OBSERVATIONS.

INZ001>003-010>013-019-020-131800-
NORTHWEST INDIANA

CITY           SKY/WX    TMP DP  RH WIND       PRES   REMARKS
GARY /AIRPORT/ PTSUNNY   79  64  61 W6        29.95S
KNOX *+        PTSUNNY   75  66  72 NW7       29.94R
MONTICELLO +   CLOUDY    78  69  73 W5        29.94S
VALPARAISO     PTSUNNY   76  66  71 VRB5      29.95S

$$

LMZ046-743>745-131800-
SOUTHERN LAKE MICHIGAN

STATION/POSITION TIME  TEMP WIND        PRES
                       AIR  DIR/SP/G
                 (UTC) (F)  (DEG/KT/KT) (MB)
MICHIGAN CITY    1600   69  240/  8/  9   N/A

$$

INZ004-005-014>016-021>024-131800-
NORTH CENTRAL INDIANA

CITY           SKY/WX    TMP DP  RH WIND       PRES   REMARKS
GOSHEN         PTSUNNY   77  65  66 W9        29.94S
PERU/GRISSOM   CLOUDY    79  72  78 NW10      29.94S
SOUTH BEND     PTSUNNY   75  64  68 NW8       29.95F
WARSAW +       PTSUNNY   77  68  73 NW10      29.94S

$$

INZ006>009-017-018-025>027-131800-
NORTHEAST INDIANA

CITY           SKY/WX    TMP DP  RH WIND       PRES   REMARKS
ANGOLA *+      SUNNY     81  66  61 NW7       29.93S
FORT WAYNE     CLOUDY    81  68  64 W9        29.94S

$$

INZ028-029-035-036-043>045-051>053-131800-
WEST CENTRAL INDIANA

CITY           SKY/WX    TMP DP  RH WIND       PRES   REMARKS
GREENCASTLE +  CLOUDY    77  70  78 W6        30.00R
LAFAYETTE      PTSUNNY   79  69  71 NW10      29.95S
TERRE HAUTE    PTSUNNY   82  71  69 W10       29.99R

$$

INZ030>032-037>040-046>048-054>057-064-065-131800-
CENTRAL INDIANA

CITY           SKY/WX    TMP DP  RH WIND       PRES   REMARKS
COLUMBUS       PTSUNNY   84  73  70 W6        29.97F
INDIANAPOLIS   CLOUDY    81  69  67 SW16      29.97R
-EAGLE CREEK   CLOUDY    79  70  74 W7        29.97R
KOKOMO *+      PTSUNNY   81  70  69 N8        29.95S
MT COMFORT *+  CLOUDY    82  73  74 W9        29.98S
SHELBYVILLE    PTSUNNY   84  72  67 SW10      29.97S

$$

INZ033-034-041-042-049-050-058-059-131800-
EAST CENTRAL INDIANA

CITY           SKY/WX    TMP DP  RH WIND       PRES   REMARKS
MUNCIE         CLOUDY    80  69  69 W10       29.96S

$$

INZ060-061-067>069-081>083-085>088-131800-
SOUTHWEST INDIANA

CITY           SKY/WX    TMP DP  RH WIND       PRES   REMARKS
EVANSVILLE     MOSUNNY   88  73  61 S16       29.99F HX  95
HUNTINGBURG *+ SUNNY     90  73  58 SW16      29.99F HX  98

$$

INZ062-063-066-070>080-084-089>092-131800-
SOUTH CENTRAL AND SOUTHEAST INDIANA

CITY           SKY/WX    TMP DP  RH WIND       PRES   REMARKS
BLOOMINGTON    PTSUNNY   84  71  65 W10       29.99S
SEYMOUR +      MOSUNNY   86  55  35 W12       29.97

$$



USA.gov is the U.S. government's official web portal to all federal, state and local government web resources and services.